NIMIQ 4

Last updated on Fri Dec 19 2025 00:02:49 GMT+0000 (Coordinated Universal Time)

1 33373U 08044A 25352.60907495 -.00000195 00000+0 00000+0 0 9996 2 33373 0.0196 306.4501 0001756 322.2084 316.0518 1.00267807 63178
UTC large
Height (km)
Speed (km/s)
/
Latitude / Longitude
Inclination (degrees)
Orbital Period (minutes)
Azimuth
Elevation
Range (km)
Doppler Factor

Next 0 passes for location: London (51.5072 / 0.1276)

Sorry there are no passes over London.